Track STARLINK-3721 now! 10-day predictions STARLINK-3721 is classified as:
1 52134U 22029AY 22184.58334491 -.00122403 00000-0 -77890-2 0 9991 2 52134 53.2175 347.5307 0001729 53.5831 213.0083 15.08914882 17879